Time,TemperatureF,DewpointF,PressureIn,WindDirection,WindDirectionDegrees,WindSpeedMPH,WindSpeedGustMPH,Humidity,HourlyPrecipIn,Conditions,Clouds,dailyrainin,SoftwareType,DateUTC
2013-01-17 00:03:00,24.6,10.7,30.72,NNE,23,0.0,0.0,55,0.00,,,0.00,Wunderground v.1.15,2013-01-17 06:03:00,
2013-01-17 00:09:00,24.4,10.5,30.72,NNE,23,0.0,1.0,55,0.00,,,0.00,Wunderground v.1.15,2013-01-17 06:09:00,
2013-01-17 00:14:00,24.2,10.7,30.72,NNE,23,0.0,1.0,56,0.00,,,0.00,Wunderground v.1.15,2013-01-17 06:14:00,
2013-01-17 00:20:00,23.7,10.3,30.72,NNE,23,0.0,3.0,56,0.00,,,0.00,Wunderground v.1.15,2013-01-17 06:20:00,
2013-01-17 00:25:00,23.2,10.2,30.72,NNE,23,1.0,3.0,57,0.00,,,0.00,Wunderground v.1.15,2013-01-17 06:25:00,
2013-01-17 00:31:00,23.0,10.4,30.72,NNE,23,1.0,5.0,58,0.00,,,0.00,Wunderground v.1.15,2013-01-17 06:31:00,
2013-01-17 00:36:00,22.7,10.1,30.72,NNE,23,1.0,5.0,58,0.00,,,0.00,Wunderground v.1.15,2013-01-17 06:36:00,
2013-01-17 00:42:00,22.5,10.3,30.73,NNE,23,1.0,5.0,59,0.00,,,0.00,Wunderground v.1.15,2013-01-17 06:42:00,
2013-01-17 00:47:00,22.2,10.0,30.73,NNE,23,2.0,5.0,59,0.00,,,0.00,Wunderground v.1.15,2013-01-17 06:47:00,
2013-01-17 00:53:00,21.9,10.1,30.73,NNE,23,2.0,5.0,60,0.00,,,0.00,Wunderground v.1.15,2013-01-17 06:53:00,
2013-01-17 00:58:00,21.7,9.9,30.73,NNE,23,1.0,5.0,60,0.00,,,0.00,Wunderground v.1.15,2013-01-17 06:58:00,
2013-01-17 01:04:00,21.8,10.0,30.73,NNE,23,0.0,1.0,60,0.00,,,0.00,Wunderground v.1.15,2013-01-17 07:04:00,
2013-01-17 01:10:00,21.8,10.0,30.73,NNE,23,0.0,0.0,60,0.00,,,0.00,Wunderground v.1.15,2013-01-17 07:10:00,
2013-01-17 01:15:00,21.7,9.9,30.73,NNE,23,0.0,0.0,60,0.00,,,0.00,Wunderground v.1.15,2013-01-17 07:15:00,
2013-01-17 01:21:00,21.6,9.8,30.73,NNE,23,0.0,0.0,60,0.00,,,0.00,Wunderground v.1.15,2013-01-17 07:21:00,
2013-01-17 01:27:00,21.5,10.1,30.73,NNE,23,0.0,0.0,61,0.00,,,0.00,Wunderground v.1.15,2013-01-17 07:27:00,
2013-01-17 01:32:00,21.3,9.9,30.73,NNE,23,0.0,2.0,61,0.00,,,0.00,Wunderground v.1.15,2013-01-17 07:32:00,
2013-01-17 01:38:00,21.0,10.0,30.74,NNE,23,1.0,3.0,62,0.00,,,0.00,Wunderground v.1.15,2013-01-17 07:38:00,
2013-01-17 01:44:00,20.6,9.6,30.74,NNE,23,1.0,2.0,62,0.00,,,0.00,Wunderground v.1.15,2013-01-17 07:44:00,
2013-01-17 01:49:00,20.5,9.9,30.74,NNE,23,1.0,2.0,63,0.00,,,0.00,Wunderground v.1.15,2013-01-17 07:49:00,
2013-01-17 01:55:00,20.3,9.7,30.74,NNE,23,1.0,1.0,63,0.00,,,0.00,Wunderground v.1.15,2013-01-17 07:55:00,
2013-01-17 02:00:00,20.2,10.0,30.74,NNE,23,0.0,0.0,64,0.00,,,0.00,Wunderground v.1.15,2013-01-17 08:00:00,
2013-01-17 02:06:00,20.3,10.1,30.74,NNE,23,0.0,0.0,64,0.00,,,0.00,Wunderground v.1.15,2013-01-17 08:06:00,
2013-01-17 02:12:00,20.3,10.1,30.74,NNE,23,0.0,0.0,64,0.00,,,0.00,Wunderground v.1.15,2013-01-17 08:12:00,
2013-01-17 02:17:00,20.2,10.0,30.74,NNE,23,0.0,0.0,64,0.00,,,0.00,Wunderground v.1.15,2013-01-17 08:17:00,
2013-01-17 02:23:00,20.2,10.0,30.74,NNE,23,0.0,0.0,64,0.00,,,0.00,Wunderground v.1.15,2013-01-17 08:23:00,
2013-01-17 02:29:00,20.2,10.0,30.74,NNE,23,0.0,0.0,64,0.00,,,0.00,Wunderground v.1.15,2013-01-17 08:29:00,
2013-01-17 02:34:00,20.0,9.8,30.74,NNE,23,0.0,3.0,64,0.00,,,0.00,Wunderground v.1.15,2013-01-17 08:34:00,
2013-01-17 02:39:00,19.6,9.4,30.74,NNE,23,0.0,3.0,64,0.00,,,0.00,Wunderground v.1.15,2013-01-17 08:39:00,
2013-01-17 02:45:00,19.3,9.4,30.75,NNE,23,0.0,3.0,65,0.00,,,0.00,Wunderground v.1.15,2013-01-17 08:45:00,
2013-01-17 02:51:00,18.8,9.0,30.75,NNE,23,0.0,3.0,65,0.00,,,0.00,Wunderground v.1.15,2013-01-17 08:51:00,
2013-01-17 02:56:00,18.5,9.0,30.75,NNE,23,1.0,3.0,66,0.00,,,0.00,Wunderground v.1.15,2013-01-17 08:56:00,
2013-01-17 03:02:00,18.2,9.1,30.75,NNE,23,2.0,2.0,67,0.00,,,0.00,Wunderground v.1.15,2013-01-17 09:02:00,
2013-01-17 03:07:00,18.2,9.1,30.75,NNE,23,2.0,2.0,67,0.00,,,0.00,Wunderground v.1.15,2013-01-17 09:07:00,
2013-01-17 03:13:00,18.1,9.0,30.75,NNE,23,1.0,2.0,67,0.00,,,0.00,Wunderground v.1.15,2013-01-17 09:13:00,
2013-01-17 03:19:00,17.6,8.8,30.75,NNE,23,1.0,3.0,68,0.00,,,0.00,Wunderground v.1.15,2013-01-17 09:19:00,
2013-01-17 03:24:00,17.5,9.1,30.75,NNE,23,1.0,2.0,69,0.00,,,0.00,Wunderground v.1.15,2013-01-17 09:24:00,
2013-01-17 03:30:00,17.6,9.2,30.75,NNE,23,2.0,2.0,69,0.00,,,0.00,Wunderground v.1.15,2013-01-17 09:30:00,
2013-01-17 03:36:00,18.0,9.9,30.75,NNE,23,0.0,2.0,70,0.00,,,0.00,Wunderground v.1.15,2013-01-17 09:36:00,
2013-01-17 03:41:00,18.3,9.8,30.75,NNE,23,0.0,1.0,69,0.00,,,0.00,Wunderground v.1.15,2013-01-17 09:41:00,
2013-01-17 03:47:00,18.6,9.8,30.75,NNE,23,0.0,1.0,68,0.00,,,0.00,Wunderground v.1.15,2013-01-17 09:47:00,
2013-01-17 03:52:00,18.8,10.0,30.75,NNE,23,0.0,1.0,68,0.00,,,0.00,Wunderground v.1.15,2013-01-17 09:52:00,
2013-01-17 03:58:00,18.8,9.6,30.75,NNE,23,0.0,1.0,67,0.00,,,0.00,Wunderground v.1.15,2013-01-17 09:58:00,
2013-01-17 04:04:00,18.6,9.5,30.75,NNE,23,0.0,0.0,67,0.00,,,0.00,Wunderground v.1.15,2013-01-17 10:04:00,
2013-01-17 04:10:00,18.2,9.1,30.74,NNE,23,0.0,0.0,67,0.00,,,0.00,Wunderground v.1.15,2013-01-17 10:10:00,
2013-01-17 04:15:00,18.0,9.2,30.74,NNE,23,0.0,1.0,68,0.00,,,0.00,Wunderground v.1.15,2013-01-17 10:15:00,
2013-01-17 04:21:00,17.5,8.7,30.74,NNE,23,0.0,2.0,68,0.00,,,0.00,Wunderground v.1.15,2013-01-17 10:21:00,
2013-01-17 04:27:00,17.2,8.8,30.74,NNE,23,1.0,2.0,69,0.00,,,0.00,Wunderground v.1.15,2013-01-17 10:27:00,
2013-01-17 04:32:00,17.2,9.1,30.74,NNE,23,1.0,3.0,70,0.00,,,0.00,Wunderground v.1.15,2013-01-17 10:32:00,
2013-01-17 04:38:00,17.1,8.7,30.74,NNE,23,1.0,3.0,69,0.00,,,0.00,Wunderground v.1.15,2013-01-17 10:38:00,
2013-01-17 04:43:00,17.1,8.7,30.74,NNE,23,1.0,3.0,69,0.00,,,0.00,Wunderground v.1.15,2013-01-17 10:43:00,
2013-01-17 04:49:00,16.7,8.6,30.74,NNE,23,1.0,3.0,70,0.00,,,0.00,Wunderground v.1.15,2013-01-17 10:49:00,
2013-01-17 04:54:00,16.5,8.7,30.74,NNE,23,1.0,3.0,71,0.00,,,0.00,Wunderground v.1.15,2013-01-17 10:54:00,
2013-01-17 05:00:00,16.3,8.5,30.74,NNE,23,1.0,2.0,71,0.00,,,0.00,Wunderground v.1.15,2013-01-17 11:00:00,
2013-01-17 05:06:00,15.9,8.5,30.74,NNE,23,2.0,2.0,72,0.00,,,0.00,Wunderground v.1.15,2013-01-17 11:06:00,
2013-01-17 05:12:00,15.5,8.4,30.74,NNE,23,2.0,2.0,73,0.00,,,0.00,Wunderground v.1.15,2013-01-17 11:12:00,
2013-01-17 05:17:00,15.3,8.2,30.74,NNE,23,2.0,2.0,73,0.00,,,0.00,Wunderground v.1.15,2013-01-17 11:17:00,
2013-01-17 05:23:00,15.2,8.4,30.74,NNE,23,2.0,3.0,74,0.00,,,0.00,Wunderground v.1.15,2013-01-17 11:23:00,
2013-01-17 05:28:00,14.9,8.1,30.74,NNE,23,1.0,3.0,74,0.00,,,0.00,Wunderground v.1.15,2013-01-17 11:28:00,
2013-01-17 05:34:00,14.8,8.0,30.74,NNE,23,0.0,3.0,74,0.00,,,0.00,Wunderground v.1.15,2013-01-17 11:34:00,
2013-01-17 05:39:00,14.5,8.0,30.74,NNE,23,1.0,3.0,75,0.00,,,0.00,Wunderground v.1.15,2013-01-17 11:39:00,
2013-01-17 05:45:00,14.5,8.3,30.74,NNE,23,2.0,3.0,76,0.00,,,0.00,Wunderground v.1.15,2013-01-17 11:45:00,
2013-01-17 05:51:00,14.7,8.5,30.73,NNE,23,2.0,4.0,76,0.00,,,0.00,Wunderground v.1.15,2013-01-17 11:51:00,
2013-01-17 05:56:00,14.6,8.4,30.73,NNE,23,2.0,4.0,76,0.00,,,0.00,Wunderground v.1.15,2013-01-17 11:56:00,
2013-01-17 06:01:00,14.6,8.4,30.73,NNE,23,2.0,2.0,76,0.00,,,0.00,Wunderground v.1.15,2013-01-17 12:01:00,
2013-01-17 06:07:00,14.6,8.4,30.74,NNE,23,2.0,2.0,76,0.00,,,0.00,Wunderground v.1.15,2013-01-17 12:07:00,
2013-01-17 06:13:00,14.5,8.3,30.73,NNE,23,1.0,3.0,76,0.00,,,0.00,Wunderground v.1.15,2013-01-17 12:13:00,
2013-01-17 06:19:00,14.4,8.2,30.74,NNE,23,1.0,3.0,76,0.00,,,0.00,Wunderground v.1.15,2013-01-17 12:19:00,
2013-01-17 06:24:00,14.4,8.2,30.74,NNE,23,0.0,1.0,76,0.00,,,0.00,Wunderground v.1.15,2013-01-17 12:24:00,
2013-01-17 06:30:00,14.3,8.1,30.74,NNE,23,1.0,2.0,76,0.00,,,0.00,Wunderground v.1.15,2013-01-17 12:30:00,
2013-01-17 06:35:00,14.4,8.2,30.74,NNE,23,1.0,3.0,76,0.00,,,0.00,Wunderground v.1.15,2013-01-17 12:35:00,
2013-01-17 06:41:00,14.4,8.2,30.74,NNE,23,0.0,3.0,76,0.00,,,0.00,Wunderground v.1.15,2013-01-17 12:41:00,
2013-01-17 06:46:00,14.3,8.1,30.74,NNE,23,0.0,3.0,76,0.00,,,0.00,Wunderground v.1.15,2013-01-17 12:46:00,
2013-01-17 06:52:00,14.5,8.3,30.75,NNE,23,0.0,3.0,76,0.00,,,0.00,Wunderground v.1.15,2013-01-17 12:52:00,
2013-01-17 06:57:00,14.5,8.0,30.75,NNE,23,0.0,3.0,75,0.00,,,0.00,Wunderground v.1.15,2013-01-17 12:57:00,
2013-01-17 07:03:00,14.5,8.0,30.74,NNE,23,2.0,3.0,75,0.00,,,0.00,Wunderground v.1.15,2013-01-17 13:03:00,
2013-01-17 07:09:00,14.5,8.0,30.74,NNE,23,3.0,3.0,75,0.00,,,0.00,Wunderground v.1.15,2013-01-17 13:09:00,
2013-01-17 07:14:00,14.4,7.9,30.75,NNE,23,2.0,3.0,75,0.00,,,0.00,Wunderground v.1.15,2013-01-17 13:14:00,
2013-01-17 07:20:00,14.2,7.7,30.75,NNE,23,2.0,2.0,75,0.00,,,0.00,Wunderground v.1.15,2013-01-17 13:20:00,
2013-01-17 07:25:00,14.2,7.7,30.75,NNE,23,2.0,2.0,75,0.00,,,0.00,Wunderground v.1.15,2013-01-17 13:25:00,
2013-01-17 07:31:00,14.2,7.7,30.76,NNE,23,0.0,3.0,75,0.00,,,0.00,Wunderground v.1.15,2013-01-17 13:31:00,
2013-01-17 07:36:00,14.0,7.5,30.76,NNE,23,0.0,3.0,75,0.00,,,0.00,Wunderground v.1.15,2013-01-17 13:36:00,
2013-01-17 07:42:00,13.6,7.1,30.76,NNE,23,0.0,3.0,75,0.00,,,0.00,Wunderground v.1.15,2013-01-17 13:42:00,
2013-01-17 07:48:00,13.4,7.2,30.77,NNE,23,0.0,3.0,76,0.00,,,0.00,Wunderground v.1.15,2013-01-17 13:48:00,
2013-01-17 07:53:00,13.3,7.4,30.77,NNE,23,0.0,3.0,77,0.00,,,0.00,Wunderground v.1.15,2013-01-17 13:53:00,
2013-01-17 07:59:00,13.5,7.6,30.77,NNE,23,0.0,3.0,77,0.00,,,0.00,Wunderground v.1.15,2013-01-17 13:59:00,
2013-01-17 08:04:00,13.7,7.8,30.77,NNE,23,1.0,2.0,77,0.00,,,0.00,Wunderground v.1.15,2013-01-17 14:04:00,
2013-01-17 08:10:00,13.9,8.0,30.77,NNE,23,1.0,2.0,77,0.00,,,0.00,Wunderground v.1.15,2013-01-17 14:10:00,
2013-01-17 08:15:00,13.9,8.0,30.78,NNE,23,1.0,2.0,77,0.00,,,0.00,Wunderground v.1.15,2013-01-17 14:15:00,
2013-01-17 08:21:00,13.9,8.0,30.78,NNE,23,1.0,1.0,77,0.00,,,0.00,Wunderground v.1.15,2013-01-17 14:21:00,
2013-01-17 08:26:00,14.0,8.1,30.78,NNE,23,0.0,1.0,77,0.00,,,0.00,Wunderground v.1.15,2013-01-17 14:26:00,
2013-01-17 08:32:00,14.0,8.1,30.78,NNE,23,0.0,4.0,77,0.00,,,0.00,Wunderground v.1.15,2013-01-17 14:32:00,
2013-01-17 08:38:00,14.4,8.5,30.78,NNE,23,0.0,4.0,77,0.00,,,0.00,Wunderground v.1.15,2013-01-17 14:38:00,
2013-01-17 08:43:00,14.8,8.9,30.78,NNE,23,1.0,4.0,77,0.00,,,0.00,Wunderground v.1.15,2013-01-17 14:43:00,
2013-01-17 08:48:00,15.5,9.3,30.78,NNE,23,1.0,4.0,76,0.00,,,0.00,Wunderground v.1.15,2013-01-17 14:48:00,
2013-01-17 08:54:00,15.9,9.1,30.79,NNE,23,1.0,4.0,74,0.00,,,0.00,Wunderground v.1.15,2013-01-17 14:54:00,
2013-01-17 09:00:00,16.4,9.6,30.79,NNE,23,0.0,1.0,74,0.00,,,0.00,Wunderground v.1.15,2013-01-17 15:00:00,
2013-01-17 09:05:00,17.2,10.3,30.79,NNE,23,1.0,3.0,74,0.00,,,0.00,Wunderground v.1.15,2013-01-17 15:05:00,
2013-01-17 09:11:00,18.2,10.7,30.79,NNE,23,1.0,1.0,72,0.00,,,0.00,Wunderground v.1.15,2013-01-17 15:11:00,
2013-01-17 09:16:00,19.1,10.9,30.79,NNE,23,0.0,2.0,70,0.00,,,0.00,Wunderground v.1.15,2013-01-17 15:16:00,
2013-01-17 09:22:00,19.8,10.9,30.79,NNE,23,1.0,1.0,68,0.00,,,0.00,Wunderground v.1.15,2013-01-17 15:22:00,
2013-01-17 09:28:00,20.2,10.6,30.79,NNE,23,1.0,2.0,66,0.00,,,0.00,Wunderground v.1.15,2013-01-17 15:28:00,
2013-01-17 09:33:00,20.5,10.9,30.79,NNE,23,1.0,4.0,66,0.00,,,0.00,Wunderground v.1.15,2013-01-17 15:33:00,
2013-01-17 09:39:00,21.0,11.1,30.80,NNE,23,3.0,5.0,65,0.00,,,0.00,Wunderground v.1.15,2013-01-17 15:39:00,
2013-01-17 09:44:00,21.7,11.7,30.80,NNE,23,2.0,3.0,65,0.00,,,0.00,Wunderground v.1.15,2013-01-17 15:44:00,
2013-01-17 09:50:00,23.0,12.3,30.80,NNE,24,2.0,4.0,63,0.00,,,0.00,Wunderground v.1.15,2013-01-17 15:50:00,
2013-01-17 09:55:00,23.6,11.7,30.80,NNE,25,4.0,5.0,60,0.00,,,0.00,Wunderground v.1.15,2013-01-17 15:55:00,
2013-01-17 10:00:00,24.3,12.4,30.80,NNE,25,3.0,3.0,60,0.00,,,0.00,Wunderground v.1.15,2013-01-17 16:00:00,
2013-01-17 10:06:00,25.1,12.4,30.80,NNE,25,2.0,4.0,58,0.00,,,0.00,Wunderground v.1.15,2013-01-17 16:06:00,
2013-01-17 10:11:00,25.7,12.6,30.80,NNE,26,2.0,2.0,57,0.00,,,0.00,Wunderground v.1.15,2013-01-17 16:11:00,
2013-01-17 10:17:00,25.9,12.3,30.81,NE,35,3.0,5.0,56,0.00,,,0.00,Wunderground v.1.15,2013-01-17 16:17:00,
2013-01-17 10:22:00,26.0,12.4,30.81,NE,35,3.0,3.0,56,0.00,,,0.00,Wunderground v.1.15,2013-01-17 16:22:00,
2013-01-17 10:28:00,26.5,12.5,30.81,NE,40,3.0,5.0,55,0.00,,,0.00,Wunderground v.1.15,2013-01-17 16:28:00,
2013-01-17 10:34:00,27.2,12.7,30.81,NE,41,4.0,4.0,54,0.00,,,0.00,Wunderground v.1.15,2013-01-17 16:34:00,
2013-01-17 10:39:00,27.7,12.8,30.81,NE,41,3.0,4.0,53,0.00,,,0.00,Wunderground v.1.15,2013-01-17 16:39:00,
2013-01-17 10:45:00,28.7,13.3,30.80,NE,44,3.0,5.0,52,0.00,,,0.00,Wunderground v.1.15,2013-01-17 16:45:00,
2013-01-17 10:50:00,29.2,13.3,30.80,NE,44,3.0,5.0,51,0.00,,,0.00,Wunderground v.1.15,2013-01-17 16:50:00,
2013-01-17 10:56:00,29.8,13.4,30.80,NE,53,4.0,7.0,50,0.00,,,0.00,Wunderground v.1.15,2013-01-17 16:56:00,
2013-01-17 11:01:00,30.6,13.7,30.80,NE,55,4.0,6.0,49,0.00,,,0.00,Wunderground v.1.15,2013-01-17 17:01:00,
2013-01-17 11:07:00,31.3,13.9,30.80,NE,55,4.0,7.0,48,0.00,,,0.00,Wunderground v.1.15,2013-01-17 17:07:00,
2013-01-17 11:13:00,31.7,13.3,30.80,NE,55,4.0,6.0,46,0.00,,,0.00,Wunderground v.1.15,2013-01-17 17:13:00,
2013-01-17 11:18:00,32.1,13.6,30.79,ENE,59,4.0,7.0,46,0.00,,,0.00,Wunderground v.1.15,2013-01-17 17:18:00,
2013-01-17 11:24:00,32.5,14.0,30.79,ENE,61,4.0,7.0,46,0.00,,,0.00,Wunderground v.1.15,2013-01-17 17:24:00,
2013-01-17 11:30:00,32.7,13.7,30.79,ENE,63,4.0,4.0,45,0.00,,,0.00,Wunderground v.1.15,2013-01-17 17:30:00,
2013-01-17 11:35:00,33.2,13.6,30.79,ENE,67,5.0,6.0,44,0.00,,,0.00,Wunderground v.1.15,2013-01-17 17:35:00,
2013-01-17 11:41:00,33.2,13.6,30.78,ENE,67,5.0,6.0,44,0.00,,,0.00,Wunderground v.1.15,2013-01-17 17:41:00,
2013-01-17 11:47:00,33.5,13.9,30.78,ENE,67,3.0,6.0,44,0.00,,,0.00,Wunderground v.1.15,2013-01-17 17:47:00,
2013-01-17 11:52:00,34.2,14.0,30.77,ENE,68,3.0,6.0,43,0.00,,,0.00,Wunderground v.1.15,2013-01-17 17:52:00,
2013-01-17 11:58:00,34.6,14.4,30.77,ENE,69,3.0,6.0,43,0.00,,,0.00,Wunderground v.1.15,2013-01-17 17:58:00,
2013-01-17 12:03:00,34.5,14.3,30.76,ENE,71,4.0,6.0,43,0.00,,,0.00,Wunderground v.1.15,2013-01-17 18:03:00,
2013-01-17 12:09:00,34.8,14.0,30.76,ENE,73,5.0,7.0,42,0.00,,,0.00,Wunderground v.1.15,2013-01-17 18:09:00,
2013-01-17 12:15:00,35.3,14.5,30.75,ENE,72,4.0,6.0,42,0.00,,,0.00,Wunderground v.1.15,2013-01-17 18:15:00,
2013-01-17 12:20:00,35.7,14.8,30.75,ENE,73,5.0,5.0,42,0.00,,,0.00,Wunderground v.1.15,2013-01-17 18:20:00,
2013-01-17 12:26:00,36.4,14.9,30.75,ENE,73,4.0,5.0,41,0.00,,,0.00,Wunderground v.1.15,2013-01-17 18:26:00,
2013-01-17 12:31:00,36.8,15.3,30.74,ENE,78,4.0,10.0,41,0.00,,,0.00,Wunderground v.1.15,2013-01-17 18:31:00,
2013-01-17 12:37:00,37.2,15.1,30.74,ENE,77,4.0,10.0,40,0.00,,,0.00,Wunderground v.1.15,2013-01-17 18:37:00,
2013-01-17 12:42:00,37.1,15.0,30.74,ENE,76,4.0,10.0,40,0.00,,,0.00,Wunderground v.1.15,2013-01-17 18:42:00,
2013-01-17 12:48:00,36.9,14.8,30.73,ENE,76,4.0,10.0,40,0.00,,,0.00,Wunderground v.1.15,2013-01-17 18:48:00,
2013-01-17 12:54:00,37.4,15.2,30.73,ENE,77,3.0,10.0,40,0.00,,,0.00,Wunderground v.1.15,2013-01-17 18:54:00,
2013-01-17 12:59:00,37.7,15.5,30.73,ENE,77,2.0,10.0,40,0.00,,,0.00,Wunderground v.1.15,2013-01-17 18:59:00,
2013-01-17 13:05:00,38.2,15.4,30.72,ENE,77,2.0,3.0,39,0.00,,,0.00,Wunderground v.1.15,2013-01-17 19:05:00,
2013-01-17 13:10:00,38.4,15.6,30.72,ENE,76,3.0,4.0,39,0.00,,,0.00,Wunderground v.1.15,2013-01-17 19:10:00,
2013-01-17 13:16:00,38.7,15.8,30.72,ENE,77,2.0,5.0,39,0.00,,,0.00,Wunderground v.1.15,2013-01-17 19:16:00,
2013-01-17 13:21:00,39.1,16.2,30.71,ENE,77,2.0,4.0,39,0.00,,,0.00,Wunderground v.1.15,2013-01-17 19:21:00,
2013-01-17 13:27:00,39.4,15.9,30.71,ENE,77,2.0,4.0,38,0.00,,,0.00,Wunderground v.1.15,2013-01-17 19:27:00,
2013-01-17 13:33:00,39.8,16.2,30.70,ENE,77,1.0,10.0,38,0.00,,,0.00,Wunderground v.1.15,2013-01-17 19:33:00,
2013-01-17 13:38:00,40.2,16.6,30.70,ENE,77,1.0,10.0,38,0.00,,,0.00,Wunderground v.1.15,2013-01-17 19:38:00,
2013-01-17 13:44:00,40.3,16.1,30.70,ENE,77,2.0,10.0,37,0.00,,,0.00,Wunderground v.1.15,2013-01-17 19:44:00,
2013-01-17 13:49:00,40.6,16.3,30.69,ENE,77,2.0,10.0,37,0.00,,,0.00,Wunderground v.1.15,2013-01-17 19:49:00,
2013-01-17 13:55:00,41.1,16.1,30.69,ENE,77,1.0,10.0,36,0.00,,,0.00,Wunderground v.1.15,2013-01-17 19:55:00,
2013-01-17 14:00:00,41.3,16.3,30.68,ENE,77,1.0,3.0,36,0.00,,,0.00,Wunderground v.1.15,2013-01-17 20:00:00,
2013-01-17 14:05:00,41.6,16.6,30.68,ENE,77,1.0,3.0,36,0.00,,,0.00,Wunderground v.1.15,2013-01-17 20:05:00,
2013-01-17 14:11:00,41.6,16.6,30.68,ENE,77,1.0,1.0,36,0.00,,,0.00,Wunderground v.1.15,2013-01-17 20:11:00,
2013-01-17 14:17:00,42.0,16.9,30.67,ENE,77,1.0,1.0,36,0.00,,,0.00,Wunderground v.1.15,2013-01-17 20:17:00,
2013-01-17 14:22:00,42.7,16.9,30.67,ENE,77,1.0,1.0,35,0.00,,,0.00,Wunderground v.1.15,2013-01-17 20:22:00,
2013-01-17 14:28:00,42.9,17.1,30.66,ENE,77,1.0,3.0,35,0.00,,,0.00,Wunderground v.1.15,2013-01-17 20:28:00,
2013-01-17 14:33:00,43.6,17.0,30.66,ENE,77,1.0,7.0,34,0.00,,,0.00,Wunderground v.1.15,2013-01-17 20:33:00,
2013-01-17 14:39:00,43.6,17.0,30.66,ENE,77,0.0,7.0,34,0.00,,,0.00,Wunderground v.1.15,2013-01-17 20:39:00,
2013-01-17 14:44:00,44.3,17.0,30.66,ENE,77,0.0,7.0,33,0.00,,,0.00,Wunderground v.1.15,2013-01-17 20:44:00,
2013-01-17 14:50:00,44.4,17.1,30.65,ENE,77,1.0,1.0,33,0.00,,,0.00,Wunderground v.1.15,2013-01-17 20:50:00,
2013-01-17 14:56:00,44.7,17.3,30.65,ENE,77,0.0,7.0,33,0.00,,,0.00,Wunderground v.1.15,2013-01-17 20:56:00,
2013-01-17 15:02:00,45.0,16.9,30.64,ENE,77,1.0,4.0,32,0.00,,,0.00,Wunderground v.1.15,2013-01-17 21:02:00,
2013-01-17 15:08:00,44.7,16.6,30.64,ENE,77,2.0,4.0,32,0.00,,,0.00,Wunderground v.1.15,2013-01-17 21:08:00,
2013-01-17 15:13:00,44.6,16.5,30.64,ENE,77,1.0,4.0,32,0.00,,,0.00,Wunderground v.1.15,2013-01-17 21:13:00,
2013-01-17 15:19:00,44.8,16.7,30.64,ENE,77,1.0,4.0,32,0.00,,,0.00,Wunderground v.1.15,2013-01-17 21:19:00,
2013-01-17 15:24:00,45.6,16.7,30.64,ENE,77,0.0,1.0,31,0.00,,,0.00,Wunderground v.1.15,2013-01-17 21:24:00,
2013-01-17 15:30:00,46.1,17.1,30.63,ENE,77,0.0,0.0,31,0.00,,,0.00,Wunderground v.1.15,2013-01-17 21:30:00,
2013-01-17 15:35:00,46.8,17.0,30.63,ENE,77,0.0,6.0,30,0.00,,,0.00,Wunderground v.1.15,2013-01-17 21:35:00,
2013-01-17 15:41:00,46.5,16.7,30.63,ENE,77,1.0,6.0,30,0.00,,,0.00,Wunderground v.1.15,2013-01-17 21:41:00,
2013-01-17 15:46:00,46.8,17.0,30.63,ENE,77,1.0,6.0,30,0.00,,,0.00,Wunderground v.1.15,2013-01-17 21:46:00,
2013-01-17 15:52:00,46.7,16.9,30.63,ENE,77,1.0,6.0,30,0.00,,,0.00,Wunderground v.1.15,2013-01-17 21:52:00,
2013-01-17 15:58:00,48.4,17.6,30.62,ENE,77,0.0,6.0,29,0.00,,,0.00,Wunderground v.1.15,2013-01-17 21:58:00,
2013-01-17 16:03:00,49.7,17.9,30.62,ENE,77,0.0,0.0,28,0.00,,,0.00,Wunderground v.1.15,2013-01-17 22:03:00,
2013-01-17 16:09:00,50.7,17.0,30.62,ENE,77,0.0,4.0,26,0.00,,,0.00,Wunderground v.1.15,2013-01-17 22:09:00,
2013-01-17 16:14:00,49.2,16.6,30.62,ENE,77,1.0,3.0,27,0.00,,,0.00,Wunderground v.1.15,2013-01-17 22:14:00,
2013-01-17 16:20:00,48.5,16.8,30.62,ENE,77,1.0,1.0,28,0.00,,,0.00,Wunderground v.1.15,2013-01-17 22:20:00,
2013-01-17 16:25:00,48.5,16.0,30.61,ENE,77,0.0,1.0,27,0.00,,,0.00,Wunderground v.1.15,2013-01-17 22:25:00,
2013-01-17 16:31:00,48.5,16.8,30.61,ENE,77,0.0,2.0,28,0.00,,,0.00,Wunderground v.1.15,2013-01-17 22:31:00,
2013-01-17 16:37:00,48.4,16.7,30.61,ENE,77,0.0,4.0,28,0.00,,,0.00,Wunderground v.1.15,2013-01-17 22:37:00,
2013-01-17 16:42:00,49.2,16.6,30.61,ENE,77,0.0,4.0,27,0.00,,,0.00,Wunderground v.1.15,2013-01-17 22:42:00,
2013-01-17 16:48:00,49.9,17.2,30.61,ENE,77,0.0,4.0,27,0.00,,,0.00,Wunderground v.1.15,2013-01-17 22:48:00,
2013-01-17 16:53:00,50.4,16.8,30.62,East,91,1.0,5.0,26,0.00,,,0.00,Wunderground v.1.15,2013-01-17 22:53:00,
2013-01-17 16:59:00,50.3,16.7,30.61,East,93,1.0,5.0,26,0.00,,,0.00,Wunderground v.1.15,2013-01-17 22:59:00,
2013-01-17 17:04:00,50.7,16.1,30.61,East,93,1.0,2.0,25,0.00,,,0.00,Wunderground v.1.15,2013-01-17 23:04:00,
2013-01-17 17:10:00,50.9,16.3,30.61,ESE,106,1.0,5.0,25,0.00,,,0.00,Wunderground v.1.15,2013-01-17 23:10:00,
2013-01-17 17:15:00,50.5,15.9,30.61,ESE,109,3.0,5.0,25,0.00,,,0.00,Wunderground v.1.15,2013-01-17 23:15:00,
2013-01-17 17:21:00,50.6,16.0,30.61,ESE,109,2.0,2.0,25,0.00,,,0.00,Wunderground v.1.15,2013-01-17 23:21:00,
2013-01-17 17:27:00,50.3,15.8,30.61,ESE,109,1.0,5.0,25,0.00,,,0.00,Wunderground v.1.15,2013-01-17 23:27:00,
2013-01-17 17:32:00,49.8,15.3,30.61,ESE,110,2.0,5.0,25,0.00,,,0.00,Wunderground v.1.15,2013-01-17 23:32:00,
2013-01-17 17:38:00,49.8,15.3,30.62,ESE,110,1.0,5.0,25,0.00,,,0.00,Wunderground v.1.15,2013-01-17 23:38:00,
2013-01-17 17:43:00,49.7,15.2,30.61,ESE,110,1.0,5.0,25,0.00,,,0.00,Wunderground v.1.15,2013-01-17 23:43:00,
2013-01-17 17:49:00,49.4,15.0,30.62,ESE,110,1.0,5.0,25,0.00,,,0.00,Wunderground v.1.15,2013-01-17 23:49:00,
2013-01-17 17:55:00,49.5,15.1,30.62,ESE,110,0.0,5.0,25,0.00,,,0.00,Wunderground v.1.15,2013-01-17 23:55:00,
2013-01-17 18:00:00,49.2,14.8,30.62,ESE,110,1.0,1.0,25,0.00,,,0.00,Wunderground v.1.15,2013-01-18 00:00:00,
2013-01-17 18:06:00,48.7,15.3,30.62,ESE,110,1.0,1.0,26,0.00,,,0.00,Wunderground v.1.15,2013-01-18 00:06:00,
2013-01-17 18:11:00,48.1,15.6,30.62,ESE,110,0.0,0.0,27,0.00,,,0.00,Wunderground v.1.15,2013-01-18 00:11:00,
2013-01-17 18:17:00,47.3,15.0,30.62,ESE,110,0.0,0.0,27,0.00,,,0.00,Wunderground v.1.15,2013-01-18 00:17:00,
2013-01-17 18:23:00,46.6,14.4,30.62,ESE,110,0.0,0.0,27,0.00,,,0.00,Wunderground v.1.15,2013-01-18 00:23:00,
2013-01-17 18:28:00,46.0,14.7,30.62,ESE,110,0.0,0.0,28,0.00,,,0.00,Wunderground v.1.15,2013-01-18 00:28:00,
2013-01-17 18:34:00,45.3,14.1,30.62,ESE,110,0.0,6.0,28,0.00,,,0.00,Wunderground v.1.15,2013-01-18 00:34:00,
2013-01-17 18:40:00,44.5,14.2,30.62,ESE,110,0.0,6.0,29,0.00,,,0.00,Wunderground v.1.15,2013-01-18 00:40:00,
2013-01-17 18:45:00,43.8,14.3,30.62,ESE,110,0.0,6.0,30,0.00,,,0.00,Wunderground v.1.15,2013-01-18 00:45:00,
2013-01-17 18:51:00,43.0,14.4,30.62,ESE,110,0.0,6.0,31,0.00,,,0.00,Wunderground v.1.15,2013-01-18 00:51:00,
2013-01-17 18:56:00,42.4,14.6,30.62,ESE,110,0.0,6.0,32,0.00,,,0.00,Wunderground v.1.15,2013-01-18 00:56:00,
2013-01-17 19:02:00,42.0,14.9,30.62,ESE,110,0.0,0.0,33,0.00,,,0.00,Wunderground v.1.15,2013-01-18 01:02:00,
2013-01-17 19:08:00,41.6,14.6,30.62,ESE,110,0.0,0.0,33,0.00,,,0.00,Wunderground v.1.15,2013-01-18 01:08:00,
2013-01-17 19:13:00,41.1,14.8,30.62,ESE,110,0.0,1.0,34,0.00,,,0.00,Wunderground v.1.15,2013-01-18 01:13:00,
2013-01-17 19:19:00,40.5,14.3,30.62,ESE,110,1.0,4.0,34,0.00,,,0.00,Wunderground v.1.15,2013-01-18 01:19:00,
2013-01-17 19:24:00,40.1,14.6,30.62,ESE,110,2.0,4.0,35,0.00,,,0.00,Wunderground v.1.15,2013-01-18 01:24:00,
2013-01-17 19:30:00,39.6,14.2,30.62,ESE,110,3.0,5.0,35,0.00,,,0.00,Wunderground v.1.15,2013-01-18 01:30:00,
2013-01-17 19:35:00,38.9,13.5,30.62,ESE,110,3.0,5.0,35,0.00,,,0.00,Wunderground v.1.15,2013-01-18 01:35:00,
2013-01-17 19:41:00,38.3,13.6,30.63,ESE,110,4.0,5.0,36,0.00,,,0.00,Wunderground v.1.15,2013-01-18 01:41:00,
2013-01-17 19:46:00,37.9,13.3,30.63,ESE,110,4.0,6.0,36,0.00,,,0.00,Wunderground v.1.15,2013-01-18 01:46:00,
2013-01-17 19:52:00,37.6,13.0,30.63,ESE,109,4.0,5.0,36,0.00,,,0.00,Wunderground v.1.15,2013-01-18 01:52:00,
2013-01-17 19:58:00,37.4,13.5,30.63,ESE,109,4.0,5.0,37,0.00,,,0.00,Wunderground v.1.15,2013-01-18 01:58:00,
2013-01-17 20:03:00,37.3,13.4,30.63,ESE,109,4.0,5.0,37,0.00,,,0.00,Wunderground v.1.15,2013-01-18 02:03:00,
2013-01-17 20:09:00,37.0,13.1,30.63,ESE,109,5.0,5.0,37,0.00,,,0.00,Wunderground v.1.15,2013-01-18 02:09:00,
2013-01-17 20:15:00,36.5,12.7,30.63,ESE,105,5.0,5.0,37,0.00,,,0.00,Wunderground v.1.15,2013-01-18 02:15:00,
2013-01-17 20:20:00,36.1,12.9,30.63,ENE,74,5.0,5.0,38,0.00,,,0.00,Wunderground v.1.15,2013-01-18 02:20:00,
2013-01-17 20:26:00,35.9,12.7,30.63,ENE,74,3.0,5.0,38,0.00,,,0.00,Wunderground v.1.15,2013-01-18 02:26:00,
2013-01-17 20:31:00,35.4,12.9,30.63,ENE,74,1.0,5.0,39,0.00,,,0.00,Wunderground v.1.15,2013-01-18 02:31:00,
2013-01-17 20:37:00,35.0,13.1,30.63,ENE,74,0.0,5.0,40,0.00,,,0.00,Wunderground v.1.15,2013-01-18 02:37:00,
2013-01-17 20:42:00,35.0,13.1,30.64,ENE,74,0.0,5.0,40,0.00,,,0.00,Wunderground v.1.15,2013-01-18 02:42:00,
2013-01-17 20:48:00,35.2,12.7,30.63,ENE,74,1.0,5.0,39,0.00,,,0.00,Wunderground v.1.15,2013-01-18 02:48:00,
2013-01-17 20:53:00,35.0,12.5,30.63,ENE,74,2.0,5.0,39,0.00,,,0.00,Wunderground v.1.15,2013-01-18 02:53:00,
2013-01-17 20:59:00,34.8,12.3,30.63,ENE,74,1.0,5.0,39,0.00,,,0.00,Wunderground v.1.15,2013-01-18 02:59:00,
2013-01-17 21:05:00,34.6,12.7,30.63,ENE,74,0.0,1.0,40,0.00,,,0.00,Wunderground v.1.15,2013-01-18 03:05:00,
2013-01-17 21:10:00,34.2,12.4,30.63,ENE,74,1.0,2.0,40,0.00,,,0.00,Wunderground v.1.15,2013-01-18 03:10:00,
2013-01-17 21:16:00,33.7,12.5,30.63,ENE,74,3.0,4.0,41,0.00,,,0.00,Wunderground v.1.15,2013-01-18 03:16:00,
2013-01-17 21:22:00,33.4,12.7,30.63,ENE,74,2.0,2.0,42,0.00,,,0.00,Wunderground v.1.15,2013-01-18 03:22:00,
2013-01-17 21:27:00,32.9,12.8,30.63,ENE,74,2.0,3.0,43,0.00,,,0.00,Wunderground v.1.15,2013-01-18 03:27:00,
2013-01-17 21:33:00,32.8,12.7,30.63,ENE,74,2.0,7.0,43,0.00,,,0.00,Wunderground v.1.15,2013-01-18 03:33:00,
2013-01-17 21:39:00,32.8,13.2,30.63,ENE,74,3.0,7.0,44,0.00,,,0.00,Wunderground v.1.15,2013-01-18 03:39:00,
2013-01-17 21:45:00,32.5,13.0,30.63,ENE,74,3.0,7.0,44,0.00,,,0.00,Wunderground v.1.15,2013-01-18 03:45:00,
2013-01-17 21:50:00,32.1,12.6,30.63,ENE,74,3.0,3.0,44,0.00,,,0.00,Wunderground v.1.15,2013-01-18 03:50:00,
2013-01-17 21:56:00,31.5,12.6,30.63,ENE,74,3.0,7.0,45,0.00,,,0.00,Wunderground v.1.15,2013-01-18 03:56:00,
2013-01-17 22:02:00,31.0,12.6,30.63,ENE,74,4.0,4.0,46,0.00,,,0.00,Wunderground v.1.15,2013-01-18 04:02:00,
2013-01-17 22:07:00,30.9,12.5,30.63,ENE,74,4.0,4.0,46,0.00,,,0.00,Wunderground v.1.15,2013-01-18 04:07:00,
2013-01-17 22:13:00,30.8,12.4,30.63,ENE,72,4.0,5.0,46,0.00,,,0.00,Wunderground v.1.15,2013-01-18 04:13:00,
2013-01-17 22:18:00,30.7,12.3,30.63,ENE,71,4.0,5.0,46,0.00,,,0.00,Wunderground v.1.15,2013-01-18 04:18:00,
2013-01-17 22:24:00,30.7,12.3,30.63,ENE,71,4.0,4.0,46,0.00,,,0.00,Wunderground v.1.15,2013-01-18 04:24:00,
2013-01-17 22:30:00,30.5,12.2,30.63,ENE,71,3.0,3.0,46,0.00,,,0.00,Wunderground v.1.15,2013-01-18 04:30:00,
2013-01-17 22:36:00,30.1,12.3,30.63,ENE,71,2.0,4.0,47,0.00,,,0.00,Wunderground v.1.15,2013-01-18 04:36:00,
2013-01-17 22:42:00,29.6,11.8,30.63,ENE,71,1.0,4.0,47,0.00,,,0.00,Wunderground v.1.15,2013-01-18 04:42:00,
2013-01-17 22:47:00,29.4,12.1,30.63,ENE,71,0.0,4.0,48,0.00,,,0.00,Wunderground v.1.15,2013-01-18 04:47:00,
2013-01-17 22:53:00,29.3,12.5,30.63,ENE,71,0.0,4.0,49,0.00,,,0.00,Wunderground v.1.15,2013-01-18 04:53:00,
2013-01-17 22:58:00,29.3,12.5,30.62,ENE,71,0.0,4.0,49,0.00,,,0.00,Wunderground v.1.15,2013-01-18 04:58:00,
2013-01-17 23:00:00,29.3,12.9,30.62,ENE,71,0.0,0.0,50,0.00,,,0.00,Wunderground v.1.15,2013-01-18 05:00:00,
2013-01-17 23:01:00,29.3,12.9,30.63,ENE,71,0.0,0.0,50,0.00,,,0.00,Wunderground v.1.15,2013-01-18 05:01:00,
2013-01-17 23:05:00,29.4,13.0,30.62,ENE,71,0.0,0.0,50,0.00,,,0.00,Wunderground v.1.15,2013-01-18 05:05:00,
2013-01-17 23:07:00,29.5,13.1,30.62,ENE,71,0.0,0.0,50,0.00,,,0.00,Wunderground v.1.15,2013-01-18 05:07:00,
2013-01-17 23:12:00,29.4,12.6,30.62,ENE,71,0.0,0.0,49,0.00,,,0.00,Wunderground v.1.15,2013-01-18 05:12:00,
2013-01-17 23:17:00,29.3,12.9,30.62,ENE,71,0.0,2.0,50,0.00,,,0.00,Wunderground v.1.15,2013-01-18 05:17:00,
2013-01-17 23:23:00,29.1,12.8,30.62,ENE,71,2.0,4.0,50,0.00,,,0.00,Wunderground v.1.15,2013-01-18 05:23:00,
2013-01-17 23:29:00,28.3,12.0,30.62,ENE,71,4.0,5.0,50,0.00,,,0.00,Wunderground v.1.15,2013-01-18 05:29:00,
2013-01-17 23:34:00,27.9,12.1,30.62,ENE,69,4.0,5.0,51,0.00,,,0.00,Wunderground v.1.15,2013-01-18 05:34:00,
2013-01-17 23:39:00,27.8,12.4,30.62,ENE,69,4.0,5.0,52,0.00,,,0.00,Wunderground v.1.15,2013-01-18 05:39:00,
2013-01-17 23:45:00,27.7,12.3,30.62,ENE,69,4.0,5.0,52,0.00,,,0.00,Wunderground v.1.15,2013-01-18 05:45:00,
2013-01-17 23:50:00,27.5,12.2,30.62,ENE,67,4.0,5.0,52,0.00,,,0.00,Wunderground v.1.15,2013-01-18 05:50:00,
2013-01-17 23:56:00,27.5,12.2,30.62,ENE,61,4.0,5.0,52,0.00,,,0.00,Wunderground v.1.15,2013-01-18 05:56:00,